Location: Chippewa Lake
(41.0698°N, 81.9010°W)
Time: 21:18:06
(UTC+00:00)

SL-8 Rocket - Pass Details

Date: 09 May 2021
Orbit: 957 x 990 km, 82.9° (Epoch: 16 June)

Event Time Altitude Azimuth Distance (km) Brightness Sun altitude
Rises 04:16:45 0° 355° (N) 3,713 8.2 -29.5°
Reaches altitude 10° 04:19:19 10° 359° (N) 2,760 7.2 -29.6°
Enters shadow 04:25:28 63° 73° (ENE) 1,097 4.1 -30.0°
